Location: El Paraíso
(32.5365°N, 116.4904°W)
Time: 04:42:49
(UTC+00:00)

Daily predictions for brighter satellites

Satellite Brightness Start Highest point End
(mag) Time Altitude Azimuth Time Altitude Azimuth Time Altitude Azimuth
COSMOS 2406 3.3 02:32:22 10° NNW 02:38:09 88° ENE 02:43:53 10° SSE
Cosmos 1331 Rocket 4.1 02:34:47 10° SSW 02:39:59 85° WNW 02:45:14 10° NNE
Meteor PRIRODA 3.4 02:37:45 10° SSE 02:41:09 78° ENE 02:44:34 10° N
Cosmos 2297 3.9 02:40:45 10° SSW 02:46:23 81° WNW 02:52:06 10° NNE
SL-08 R/B 4.3 02:43:03 10° N 02:47:37 52° WNW 02:52:16 10° SSW
OAO 1 Rocket 4.5 02:43:57 10° WSW 02:49:16 76° SSE 02:54:35 10° ENE
CZ-4B DEB 4.3 02:44:56 10° SSE 02:50:20 58° ENE 02:55:46 10° N
Cosmos 1441 Rocket 4.0 02:48:10 10° SSW 02:51:47 54° W 02:55:27 10° N
SJ 16-02 3.3 02:50:19 10° NE 02:52:16 13° ENE 02:54:07 10° E
ADEOS 3.7 02:50:09 10° S 02:55:22 81° WSW 03:00:36 10° NNW
Cosmos 2369 Rocket 2.2 02:49:57 10° SSW 02:55:38 87° ESE 03:01:20 10° NNE
ADEOS Rocket 3.1 02:50:47 10° S 02:56:26 70° WSW 03:01:54 10° NNW
APEX 2.7 02:53:50 10° NNW 02:57:00 73° WSW 02:59:54 10° SSE
NOSS 3-1 (A) 4.3 02:57:21 10° SE 03:00:03 15° ESE 03:02:53 10° ENE
SPOT 1/Viking Rocket 3.9 02:58:32 10° SE 03:03:29 46° ENE 03:08:26 10° N
Atlas Centaur 2 3.5 03:02:03 10° S 03:04:05 12° SSE 03:05:22 11° SE
Cosmos 2263 4.1 02:59:04 10° SSW 03:04:41 74° ESE 03:10:17 10° NNE
SL-8 Rocket 4.4 02:59:07 10° N 03:04:56 41° E 03:10:40 10° SSE
Cosmos 1825 2.7 03:02:36 10° NNE 03:05:44 32° E 03:08:07 15° SE
H-2A ROCKET BODY 3.6 03:01:46 10° W 03:06:38 54° S 03:21:37 16° ESE
Cosmos 1674 Rocket 3.7 03:04:24 10° N 03:08:51 82° W 03:13:16 10° S
CZ-4B R/B 3.6 03:04:44 10° SE 03:10:07 47° ENE 03:15:29 10° N
Hubble Space Telescope 1.2 03:10:33 10° WSW 03:14:22 44° S 03:16:31 22° ESE
[s.n.70599] 2.2 03:12:49 10° WNW 03:15:21 84° SSW 03:16:17 33° SE
Cosmos 2341 Rocket 4.1 03:10:17 10° N 03:16:28 58° E 03:22:34 10° SSE
Resurs 1-3 3.5 03:14:17 10° SSE 03:18:38 89° W 03:23:00 10° NNW
USA 234 3.6 03:15:42 17° ESE 03:20:34 51° NE 03:26:50 10° NNW
Cosmos 2082 Rocket 4.1 03:16:38 10° NW 03:21:30 30° WSW 03:26:21 10° SSW
Milstar 3 4.2 03:13:11 10° SW 03:21:55 57° SSE 03:37:37 12° E
NOSS 3-1 (C) 2.7 03:18:23 10° SSW 03:22:58 73° ESE 03:28:12 10° NNE
Okean O Rocket 2.0 03:26:49 26° SE 03:28:43 40° ENE 03:32:48 10° N
Cosmos 1025 Rocket 3.0 03:25:12 10° N 03:29:30 59° E 03:32:22 20° SSE
Resurs 01 Rocket 1.8 03:32:30 28° SE 03:34:30 49° ENE 03:38:46 10° N
Cosmos 1346 Rocket 3.3 03:31:32 10° SSW 03:35:17 57° W 03:39:04 10° N
Cosmos 2366 rocket 4.0 03:29:32 10° N 03:35:53 67° E 03:41:41 12° SSE
CARTOSAT-1 3.9 03:35:11 33° ESE 03:36:35 45° ENE 03:40:39 10° N
SJ-6B 3.8 03:33:07 10° S 03:36:53 46° W 03:40:43 10° NNW
Cosmos 1975 Rocket 3.4 03:37:48 10° N 03:41:52 40° E 03:42:19 38° E
Cosmos 2218 Rocket 3.9 03:36:55 10° N 03:43:20 75° E 03:48:45 15° SSE
ATLAS 3B R/B 2.8 03:37:23 10° S 03:43:59 57° ESE 03:51:07 10° NE
Cosmos 1328 3.6 03:41:17 10° N 03:45:04 84° W 03:46:50 30° S
Centaur D-1AR AC-36 3.7 03:44:56 10° SSW 03:49:02 30° SSE 03:50:48 28° SE
OAO 3 Rocket 3.4 03:44:23 10° WNW 03:49:15 66° N 03:51:07 36° ENE
USA 281 3.5 03:46:26 30° ESE 03:49:17 48° ENE 03:55:33 10° N
USA 186 2.3 03:49:12 36° SSW 03:50:09 53° W 03:53:09 10° NNW
Cosmos 1782 Rocket 4.3 03:46:40 10° SSW 03:50:54 53° W 03:55:12 10° N
Cosmos 1821 Rocket 4.2 03:45:31 10° N 03:51:25 46° E 03:53:13 37° ESE
Cosmos 1892 4.1 03:49:22 10° NNW 03:52:37 34° W 03:55:44 11° SSW
Cosmos 1959 Rocket 4.4 03:47:09 10° N 03:53:17 85° E 03:58:02 18° S
CZ-4 R/B 3.2 03:54:13 10° SSW 03:57:40 28° W 04:01:07 10° NW
Meteor 1-21 Rocket 4.4 03:52:29 10° N 03:58:25 82° W 04:02:40 20° S
DELTA 2 R/B (1) 3.5 03:53:54 10° WNW 03:59:31 81° SSW 04:01:06 49° SE
Cosmos 1455 4.3 03:57:24 10° SW 04:00:23 25° W 04:03:22 10° NNW
SPOT 5 4.0 04:03:53 31° ENE 04:03:53 31° ENE 04:08:09 10° N
ATLAS 5 CENTAUR R/B 1.9 04:00:42 10° SW 04:03:54 45° WNW 04:07:12 10° NNE
Cosmos 968 Rocket 4.4 04:04:17 10° NNW 04:09:07 44° WSW 04:12:18 20° SSW
Delta 2 Rocket 4.3 04:11:09 10° W 04:17:29 45° S 04:18:02 44° S
Meteor 1-11 4.1 04:12:24 10° N 04:18:05 76° E 04:18:52 64° SE
MOS 1 4.1 04:28:08 75° ESE 04:28:23 77° ENE 04:34:05 10° N
SJ 16-02 2.3 04:26:44 10° NNW 04:30:48 42° W 04:30:56 41° WSW
IRS-1C Rocket 4.4 04:37:49 55° NNE 04:37:49 55° NNE 04:42:05 10° N
Okean-O 3.6 04:43:30 45° WNW 04:43:30 45° WNW 04:46:55 10° NNW
Cosmos 2297 Rocket 4.4 04:40:23 10° NNE 04:41:24 12° NE 04:41:24 12° NE
MetOp-B 4.4 04:46:23 61° N 04:46:23 61° N 04:50:47 10° NNW
Terra 3.7 04:48:09 21° NNE 04:48:09 21° NNE 04:49:53 10° N
NOSS 3-1 (A) 4.0 04:45:37 10° SW 04:50:08 43° NW 04:55:17 10° NNE
Hubble Space Telescope 3.6 04:51:03 10° WSW 04:51:24 12° WSW 04:51:24 12° WSW
USA 234 4.1 05:03:04 37° SW 05:03:34 37° SW 05:09:33 10° WNW
Okean O Rocket 4.3 05:04:11 12° WSW 05:05:08 13° W 05:07:10 10° WNW
Resurs 01 Rocket 4.5 05:09:59 10° WSW 05:11:09 11° W 05:12:19 10° WNW
CZ-4C R/B 4.3 06:17:05 10° NNW 06:21:30 31° NNE 06:21:30 31° NNE
CENTAUR R/B 4.4 06:57:06 10° NNW 07:02:34 35° NNE 07:02:34 35° NNE
CZ-2D R/B 4.4 09:29:16 10° NNE 09:30:50 20° NNE 09:30:50 20° NNE
SL-16 R/B 4.1 09:36:56 28° ENE 09:37:16 28° ENE 09:42:24 10° N
COSMOS 2428 4.4 09:52:37 28° NNE 09:52:37 28° NNE 09:55:10 10° NNE
Cosmos 2237 Rocket 3.8 09:58:31 30° ENE 09:58:31 30° ENE 10:01:53 10° NE
ATLAS 2AS CENTAUR R/B 4.2 10:07:19 26° SE 10:08:36 28° ESE 10:14:34 10° NE
Resurs 1-4 Rocket 4.1 10:09:33 10° N 10:11:14 20° N 10:11:14 20° N
NOSS 0 Rocket 4.4 10:32:14 52° N 10:32:14 52° N 10:36:58 10° NNE
Cosmos 2219 Rocket 4.5 10:37:32 12° NNW 10:37:32 12° NNW 10:38:29 10° NNW
Cosmos 2278 Rocket 3.5 10:30:17 10° N 10:35:32 38° ENE 10:40:45 10° SE
ATLAS 5 CENTAUR R/B 3.6 10:42:32 41° S 10:42:32 41° S 10:48:06 10° ESE
SL-16 R/B 3.8 10:45:14 22° SE 10:47:24 28° ESE 10:52:09 10° NE
METEOR-M 4.3 10:47:26 10° NNE 10:52:44 64° ESE 10:53:07 62° SE
CZ-2C R/B 3.4 10:47:51 10° NNE 10:52:47 44° E 10:53:57 38° SE
Cosmos 921 Rocket 4.3 10:53:26 34° E 10:53:26 34° E 10:57:11 10° NE
ADEOS II 3.8 10:56:21 10° NNW 10:58:31 20° NW 10:58:31 20° NW
Meteor 1-19 Rocket 4.5 11:02:23 56° NW 11:02:23 56° NW 11:07:43 10° N
Cosmos 923 Rocket 4.3 11:03:38 53° NNW 11:03:38 53° NNW 11:08:00 10° N
Cosmos 1092 Rocket 3.9 11:09:38 60° W 11:09:53 60° W 11:15:57 10° N
CZ-3 R/B 4.1 11:01:21 28° SW 11:13:56 44° SSE 11:23:12 10° E
CZ-2D R/B 4.4 11:11:52 10° NW 11:12:08 11° NW 11:12:08 11° NW
Envisat 2.8 11:09:28 10° N 11:14:33 81° WNW 11:15:01 72° SW
Cosmos 2026 Rocket 4.1 11:16:45 52° W 11:17:14 53° W 11:23:25 10° N
SL-16 R/B 3.2 11:22:00 34° WNW 11:22:00 34° WNW 11:26:19 10° NNW
Cosmos 1666 Rocket 4.2 11:18:53 10° N 11:23:15 54° E 11:27:33 10° SSE
Meteor 1-18 Rocket 4.2 11:21:50 31° S 11:24:38 80° E 11:30:19 10° N
Intercosmos 25 Rocket 4.2 11:23:08 10° N 11:26:59 62° E 11:32:54 10° SSE
YAOGAN 6 3.3 11:24:01 10° N 11:26:18 43° N 11:26:18 43° N
CZ-4 R/B 4.3 11:25:02 10° N 11:29:06 40° WNW 11:29:06 40° WNW
Meteor 2-4 Rocket 3.5 11:30:43 43° SSW 11:32:27 70° W 11:37:54 10° N
Thor Agena Rocket 3.4 11:27:39 10° N 11:32:41 74° WNW 11:34:23 42° SSW
Cosmos 1943 Rocket 2.5 11:28:46 10° NNW 11:34:25 69° ENE 11:40:02 10° SSE
H-2A R/B 3.6 11:32:02 10° NE 11:36:35 33° E 11:41:12 10° SSE
Cosmos 1340 Rocket 3.7 11:39:28 32° NW 11:39:28 32° NW 11:42:08 10° N
Cosmos 2237 Rocket 3.4 11:40:21 24° WNW 11:40:47 24° WNW 11:45:21 10° N
ALOS 4.2 11:39:06 10° NNW 11:40:37 14° NW 11:40:37 14° NW
NOAA 11 4.3 11:36:46 10° N 11:42:04 53° WNW 11:44:06 35° SW
Cosmos 2112 Rocket 4.5 11:41:26 38° W 11:42:25 41° WNW 11:47:29 10° N
Cosmos 1328 Rocket 3.7 11:45:30 43° WSW 11:46:24 51° W 11:50:43 10° N
Cosmos 1867 4.0 11:42:20 10° NW 11:47:21 38° WSW 11:52:19 10° S
Cosmos 1805 3.1 11:44:28 10° NNW 11:48:04 54° W 11:48:22 52° WSW
DMSP B5D2-2 4.2 11:43:27 10° SSE 11:48:37 78° ENE 11:53:49 10° N
CRYOSAT 2 4.5 11:49:08 10° N 11:54:00 76° E 11:58:51 10° S
SWAS 4.5 11:51:32 10° NNW 11:55:45 79° ENE 11:59:56 10° SSE
